Flag for Austria Weather past 2 weeks in Bad Radkersburg, Styria, Austria

Now
40 °F

Chilly.


Feels Like: 40 °F
Forecast: 36 / 45 °F
Wind: 1 mph from West

Location: Murska Sobota

Current Time: Mar 4, 2015 at 10:12:26 AM

Latest Report: Mar 4, 2015 at 9:00 AM


Visibility: N/A

Pressure: 30.22 "Hg

Humidity: 69%

Dew point: 31 °F

Location of Bad RadkersburgLocation

Historic Weather in Bad Radkersburg — Graph

°F

Bad Radkersburg temperature yesterday

Maximum temperature yesterday: 53 °F (at 3:00 PM)
Minimum temperature yesterday: 31 °F (at 5:00 AM)
Average temperature yesterday: 41 °F

Past Weeks' High & Low Weather Summary

 TemperatureHumidityPressure
High53 °F (Mar 2, 4:00 PM)98% (Feb 24, 4:00 AM)30.79 "Hg (Feb 24, 4:00 AM)
Low22 °F (Feb 20, 7:00 AM)26% (Mar 3, 4:00 PM)29.66 "Hg (Feb 23, 4:00 PM)
Average40 °F76%30.07 "Hg
* Reported Feb 17 8:00 AM — Mar 4 8:00 AM, Bad Radkersburg, Weather by CustomWeather, © 2015

Note: Actual official high and low records may vary slightly from our data, if they occured in-between our weather recording intervals... More about our weather records

Advertising

Bad Radkersburg weather history for previous 24 hours

 ConditionsComfort  
Time TempWeatherWind HumidityBarometerVisibility
8:00 AM
Wed, Mar 4
35 °FOvercast.No wind81%30.22 "Hg19 mi
7:00 AM33 °FOvercast.1 mph83%30.20 "Hg19 mi
6:00 AM32 °FChilly.1 mph84%30.21 "HgN/A
5:00 AM31 °FChilly.1 mph86%30.22 "HgN/A
4:00 AM32 °FChilly.1 mph81%30.22 "HgN/A
3:00 AM31 °FChilly.1 mph80%30.24 "HgN/A
2:00 AM33 °FChilly.2 mph74%30.25 "HgN/A
1:00 AM32 °FChilly.1 mph75%30.26 "HgN/A
12:00 AM32 °FChilly.2 mph76%30.27 "HgN/A
11:00 PM
Tue, Mar 3
33 °FChilly.1 mph75%30.28 "HgN/A
10:00 PM35 °FChilly.2 mph66%30.27 "HgN/A
9:00 PM40 °FQuite cool.2 mph50%30.27 "HgN/A
8:00 PM41 °FQuite cool.2 mph47%30.26 "HgN/A
7:00 PM43 °FPassing clouds.1 mph43%30.26 "Hg31 mi
6:00 PM48 °FCool.1 mph32%30.24 "HgN/A
5:00 PM53 °FCool.1 mph31%30.22 "HgN/A
4:00 PM53 °FCool.5 mph26%30.22 "HgN/A
3:00 PM53 °FCool.5 mph33%30.23 "HgN/A
2:00 PM52 °FScattered clouds.6 mph35%30.24 "Hg31 mi
1:00 PM51 °FScattered clouds.6 mph31%30.25 "Hg31 mi
11:00 AM48 °FCool.N/A33%30.27 "HgN/A
10:00 AM47 °FCool.N/A38%30.27 "HgN/A
Weather by CustomWeather, © 2015

See weather overviewHow to use our weather pages